Regional Weather Roundup
Issued by NWS Charleston, SC

Current Version | Previous Version | Graphics & Text | Print | Product List | Glossary On
Versions: 1 2 3 4 5 6 7 8 9 10 11 12 13 14 15 16 17 18 19 20 21 22 23 24 25 26 27 28 29 30 31 32 33 34 35 36 37 38 39 40 41 42 43 44 45 46 47 48 49 50
000 ASUS42 KCHS 020027 RWRCHS REGIONAL WEATHER ROUNDUP NATIONAL WEATHER SERVICE CHARLESTON SC 800 PM EDT TUE SEP 01 2015 NOTE: "FAIR" INDICATES FEW OR NO CLOUDS BELOW 12,000 FEET WITH NO SIGNIFICANT WEATHER AND/OR OBSTRUCTIONS TO VISIBILITY. NOT ALL STATIONS ARE QUALITY CONTROLLED BY THE NATIONAL WEATHER SERVICE. USE DATA WITH CAUTION...ESPECIALLY DEWPOINT OBSERVATIONS. SCZ027-030-031-034>040-042>050-020100- ...SOUTHEAST SOUTH CAROLINA... CITY SKY/WX TMP DP RH WIND PRES REMARKS N CHARLESTON MOCLDY 81 73 76 S6 30.07S 6HR MIN TEMP: 81; 6HR MAX TEMP: 89; WATERFRONT PRK N/A 82 76 82 S6 30.04S MOUNT PLEASANT LGT RAIN 81 75 83 CALM 30.07S JOHNS ISLAND CLOUDY 81 75 83 CALM 30.07S PINOPOLIS N/A 86 75 70 VRB3 30.00R HX 95 MONCKS CORNER FAIR 81 73 78 CALM 30.07R SUMMERVILLE MOCLDY 81 75 83 CALM 30.08S BEAUFORT MCAS CLOUDY 81 76 84 SE3 30.07S 6HR MIN TEMP: 81; 6HR MAX TEMP: 88; BEAUFORT ARPT FAIR 79 77 94 CALM 30.06S HILTON HEAD IS MOCLDY 79 75 89 CALM 30.08S WALTERBORO CLOUDY 81 73 78 SE5 30.08S ALLENDALE MOCLDY 82 73 74 SE5 30.06R ...SOUTHERN MIDLANDS AND PEE DEE... CITY SKY/WX TMP DP RH WIND PRES REMARKS GEORGETOWN NOT AVBL KINGSTREE NOT AVBL ORANGEBURG MOCLDY 83 71 67 S6 30.06S 6HR MIN TEMP: 83; 6HR MAX TEMP: 91; BARNWELL FAIR 84 73 70 S3 30.07S HX 91 AIKEN FAIR 79 68 69 CALM 30.11S MANNING FAIR 77 68 73 CALM 30.06S COLUMBIA MOCLDY 85 69 58 S5 30.05S 6HR MIN TEMP: 85; 6HR MAX TEMP: 93; SUMTER PTCLDY 85 69 58 S5 30.04R 6HR MIN TEMP: 85; 6HR MAX TEMP: 92; FLORENCE PTCLDY 84 71 65 S3 30.05R 6HR MIN TEMP: 84; 6HR MAX TEMP: 91; MYRTLE BEACH CLEAR 82 70 65 SW7 30.08R N MYRTLE BEACH CLEAR 81 73 76 SW8 30.05F 6HR MIN TEMP: 81; 6HR MAX TEMP: 89; $$ GAZ063-065-086>088-099>101-113>116-118-119-134>141-150-020100- ...SOUTHEAST GEORGIA... CITY SKY/WX TMP DP RH WIND PRES REMARKS SAVANNAH ARPT CLOUDY 81 73 76 E6 30.07S 6HR MIN TEMP: 81; 6HR MAX TEMP: 89; HUNTER AAF MOCLDY 80 78 94 E2 30.04F 6HR MIN TEMP: 80; 6HR MAX TEMP: 86; FORT STEWART MOCLDY 80 75 83 CALM 30.04F 6HR MIN TEMP: 80; 6HR MAX TEMP: 87; 6HR PCP: TRACE; STATESBORO CLOUDY 81 77 88 CALM 30.07R SYLVANIA CLOUDY 82 78 88 CALM 30.08R HX 91 CLAXTON NOT AVBL ...CSRA...CENTRAL AND FAR SOUTHEAST GEORGIA... CITY SKY/WX TMP DP RH WIND PRES REMARKS THOMSON PTCLDY 79 76 89 CALM 30.12S AUGUSTA-BUSH PTCLDY 79 73 82 CALM 30.05S 6HR MIN TEMP: 79; 6HR MAX TEMP: 91; 6HR PCP: TRACE; AUGUSTA-DANIEL PTCLDY 87 66 49 CALM 30.07F SWAINSBORO MOCLDY 86 68 54 CALM 30.07S VIDALIA CLOUDY 81 73 78 CALM 30.07S EASTMAN CLOUDY 82 74 77 CALM 30.07F HAZLEHURST CLOUDY 82 77 85 CALM 30.05S HX 90 ALMA CLOUDY 80 77 90 SE3 30.06R 6HR MIN TEMP: 80; 6HR MAX TEMP: 84; 6HR PCP: TRACE; WAYCROSS CLOUDY 81 80 96 CALM 30.06S HX 91 JESUP MOCLDY 81 79 94 CALM 30.07R BAXLEY CLOUDY 81 77 89 CALM 30.06S BRUNSWICK MOCLDY 77 75 94 CALM 30.07S SAINT SIMONS MOCLDY 79 76 90 N5 30.06R 6HR MIN TEMP: 75; 6HR MAX TEMP: 82; 6HR PCP: 0.06; $$ SCZ027-028-034-036>038-045-046-048>050-GAZ119-141-020100- ...LAKE AND SUPPLEMENTAL COASTAL OBSERVATIONS... STATION/POSITION TIME TEMP WIND PRES WAVE SWELL AIR SEA DIR/SP/G HT/PER HT/PER/DIR (UTC) (F) (DEG/KT/KT) (MB) (FT/S) (FT/S/D) UPR LAKE MARION NOT AVBL WINYAH BAY 2345 81 210/ 4 1017.0S LAKE MURRAY 2300 88 CALM / 2 1016.9S ACE BASIN NERRS NOT AVBL FORT PULASKI 0000 80 83 110/ 5/ 7 1018.4F SAPELO ISLAND 0000 79 CALM 1018.0S $$ ANZ835-935-AMZ111-154-330-350-352-354-370-450-454-472-020100- ...C-MAN AND BUOY OBSERVATIONS... STATION/POSITION TIME TEMP WIND PRES WAVE SWELL AIR SEA DIR/SP/G HT/PER HT/PER/DIR (UTC) (F) (DEG/KT/KT) (MB) (FT/S) (FT/S/D) BUOY 41004 2350 82 83 120/ 6/ 8 1017.9S 2/ 7 2/ 7 BUOY 41008 2350 81 84 90/ 6/ 8 1017.9F 2/ 8 2/100/ 8 FOLLY BEACH CMAN 0000 82 160/ 9/ 10 1018.3S CAPERS NEARSHORE 2308 82 160/ 10/ 14 1018.2R FRIPP NEARSHORE 2300 82 120/ 10/ 12 1017.9F STATION/POSITION TIME TEMP WIND PRES WAVE SWELL AIR SEA DIR/SP/G HT/PER HT/PER/DIR (UTC) (F) (DEG/KT/KT) (MB) (FT/S) (FT/S/D) 5E ST. MARYS GA 2321 86 N/A 2/ 9 FRYING PAN BUOY 2350 81 82 200/ 4/ 6 1018.2F 2/10 2/140/10 BUOY 41025 2350 80 84 10/ 4/ 6 1017.5R 2/ 7 2/130/ 7 CAPE LOOKOUT NC 0000 79 220/ 6/ 7 1017.3R BUOY 41002 2350 83 85 250/ 6/ 8 1018.0S 3/ 6 3/190/ 6 BUOY 41010 2320 85 87 CALM / 2 1018.6R ST AUGUSTINE FL 0000 83 85 140/ 9/ 10 1018.2R $$

USA.gov is the U.S. government's official web portal to all federal, state and local government web resources and services.